{"data":{"norad_id":64934,"intl_designator":"2025-158C","name":"STARLINK-34775","alt_names":[],"object_type":"PAYLOAD","status":"ACTIVE","operator":null,"country":"US","launch_date":"2025-07-27","launch_site_code":"AFWTR","launch_vehicle":null,"mission":null,"orbit_class":"UNKNOWN","rcs_meters":null,"size_class":null,"mass_kg":null,"dimensions":null,"purposes":["comms"],"wikipedia_slug":null,"has_3d_model":false,"image_url":null,"decayed_at":null,"tle_current":{"epoch":"2026-05-25T02:37:16.017024Z","epoch_age_seconds":68839,"freshness":"FRESH","line1":"1 64934U 25158C   26145.10921316  .00005090  00000+0  35651-3 0  9994","line2":"2 64934  97.4530   9.0159 0000955  81.7164 278.4172 15.05658768 46851","mean_motion":15.05658768,"eccentricity":9.55e-5,"inclination_deg":97.453,"raan_deg":9.0159,"arg_perigee_deg":81.7164,"mean_anomaly_deg":278.4172,"bstar":0.00035651,"rev_number":4685,"period_min":95.639199970441,"perigee_km":548.82267136865,"apogee_km":550.14584702915,"semimajor_km":6927.6212591989,"source":"CELESTRAK","updated_at":"2026-05-25T13:38:20.628807Z"}}}